Location: Sawmill Trailhead
(33.5800°N, 116.4497°W)
Time: 21:58:29
(UTC-07:00)

Amateur Radio Satellites - All Passes

Search period start: 22 May 2017 21:28
Search period end: 23 May 2017 21:28
Location: Sawmill Trailhead, 33.5800°N, 116.4497°W

Satellite Date Start Highest point End Downlink Frequencies (MHz)
Time Altitude Azimuth
AAUSAT CUBESAT 2 22 May 21:29:19 21:31:07 12° 267° (W) 21:32:55 437.432
HO-68 22 May 21:30:44 21:31:52 10° 270° (W) 21:33:00 435.675
M-CUBED/EXP-1 PRIME 22 May 21:32:41 21:35:53 50° 290° (WNW) 21:39:02 437.505
FO-29 22 May 21:43:42 21:48:44 23° 96° (E) 21:54:09 435.910
Oscar 11 22 May 21:55:20 21:58:18 18° 266° (W) 22:01:17 .
EO-88 22 May 21:58:34 22:02:11 86° 253° (WSW) 22:05:52 145.990 - 145.960
TIGRISAT 22 May 22:15:02 22:19:10 33° 98° (E) 22:23:21 435.000
ISS 22 May 22:16:36 22:19:35 31° 322° (NW) 22:22:34 437.550
DELFI C3 22 May 22:25:37 22:29:00 26° 263° (W) 22:32:25 145.870
Tancredo 1 22 May 22:27:52 22:29:50 16° 327° (NNW) 22:31:49 437.200
PRISM 22 May 22:36:32 22:40:37 87° 102° (ESE) 22:44:40 437.425
UNISAT 6 22 May 22:45:04 22:49:40 82° 101° (ESE) 22:54:20 437.425
LO-87 22 May 22:56:13 22:59:43 56° 76° (ENE) 23:03:12 145.935 - 145.965
ESTCUBE 1 22 May 23:05:11 23:09:25 41° 73° (ENE) 23:13:41 437.505/2401.250
AIST 2D 22 May 23:05:37 23:07:01 12° 93° (E) 23:08:24 435.315
SPROUT 22 May 23:13:49 23:14:45 11° 66° (ENE) 23:15:41 437.525
SO-50 22 May 23:22:22 23:26:58 80° 299° (WNW) 23:31:33 436.795
POLYITAN 1 22 May 23:22:51 23:23:24 10° 92° (E) 23:23:57 437.675
FO-29 22 May 23:27:39 23:33:49 53° 287° (WNW) 23:40:44 435.910
QB50P2 22 May 23:29:33 23:31:55 14° 94° (E) 23:34:17 145.880/145.840
DUCHIFAT 1 22 May 23:34:38 23:36:07 12° 93° (E) 23:37:36 145.980
TIGRISAT 22 May 23:52:17 23:55:35 20° 291° (WNW) 23:58:55 435.000
EO-79 23 May 00:06:52 00:10:50 38° 99° (E) 00:14:48 145.935-145.965
VELOX 1 23 May 00:19:25 00:23:50 72° 76° (ENE) 00:28:15 145.980
AIST 2D 23 May 00:37:07 00:40:15 29° 287° (WNW) 00:43:22 435.315
50 SAT 23 May 00:41:14 00:44:41 66° 76° (ENE) 00:48:07 437.505
ESTCUBE 1 23 May 00:43:47 00:46:21 15° 266° (W) 00:48:55 437.505/2401.250
SPROUT 23 May 00:46:01 00:50:09 53° 260° (W) 00:54:18 437.525
NANOSAT C BR1 23 May 00:54:45 00:58:54 58° 286° (WNW) 01:03:05 145.865
POLYITAN 1 23 May 00:55:15 00:59:24 51° 285° (WNW) 01:03:33 437.675
YUBILEINY 23 May 01:02:17 01:10:17 43° 88° (E) 01:18:19 435.215
QB50P2 23 May 01:03:52 01:07:47 36° 287° (WNW) 01:11:42 145.880/145.840
DUCHIFAT 1 23 May 01:07:55 01:11:57 45° 286° (WNW) 01:15:59 145.980
DX 1 23 May 01:08:46 01:13:08 89° 277° (W) 01:17:30 434.975-435.025
UKube-1 23 May 01:09:50 01:14:04 61° 75° (ENE) 01:18:20 .
RS-15 23 May 01:11:36 01:20:50 27° 102° (ESE) 01:30:15 29.354- 29.394
BUGSAT 1 23 May 01:42:55 01:46:59 60° 284° (WNW) 01:51:04 437.445
EO-79 23 May 01:43:53 01:46:14 15° 292° (WNW) 01:48:36 145.935-145.965
ITUPSAT 1 23 May 01:46:22 01:48:04 12° 64° (ENE) 01:49:46 437.325
Oscar 19 23 May 02:06:00 02:11:08 66° 102° (ESE) 02:16:13 437.125/150
BEESAT 23 May 02:20:05 02:24:07 29° 70° (ENE) 02:28:11 436.000
MOZHAYETS 4 23 May 02:39:13 02:42:47 23° 70° (ENE) 02:46:22
Gurwin Techsat 1B 23 May 02:49:53 02:55:13 79° 284° (WNW) 03:00:30 435.225
YUBILEINY 23 May 02:59:20 03:07:03 35° 285° (WNW) 03:14:53 435.215
ITAMSAT 1 23 May 03:00:18 03:03:14 15° 94° (E) 03:06:09 435.822/435.867
RS-15 23 May 03:20:04 03:32:04 75° 300° (WNW) 03:44:31 29.354- 29.394
ITUPSAT 1 23 May 03:20:36 03:25:18 62° 259° (WSW) 03:30:02 437.325
AO-7 23 May 03:23:17 03:30:27 31° 98° (E) 03:37:33 .
Oscar 19 23 May 03:47:40 03:49:49 13° 296° (WNW) 03:51:59 437.125/150
BEESAT 23 May 03:58:02 04:01:49 23° 264° (W) 04:05:37 436.000
KKS-1 23 May 04:01:49 04:05:29 26° 70° (ENE) 04:09:10 437.445
O/OREOS (USA 219) 23 May 04:15:04 04:19:26 44° 105° (ESE) 04:23:48 437.305
MOZHAYETS 4 23 May 04:15:50 04:19:45 28° 263° (W) 04:23:42
ITAMSAT 1 23 May 04:37:52 04:42:55 52° 287° (WNW) 04:47:58 435.822/435.867
STARS 23 May 04:43:54 04:47:45 32° 72° (ENE) 04:51:38 437.465
JUGNU 23 May 04:43:59 04:47:44 17° 170° (S) 04:51:29 437.505
ISS 23 May 04:47:22 04:50:28 40° 39° (NE) 04:53:34 437.550
CUBESAT XI-V 23 May 04:50:03 04:54:44 75° 259° (WSW) 04:59:28 437.345
Tancredo 1 23 May 04:54:34 04:57:39 86° 48° (NE) 05:00:41 437.200
AO-85 23 May 05:00:50 05:04:59 47° 115° (ESE) 05:08:54 145.980
AO-7 23 May 05:15:21 05:23:19 51° 293° (WNW) 05:31:18 .
BEESAT 3 23 May 05:17:21 05:20:02 18° 110° (ESE) 05:22:44 437.485
PCSat 23 May 05:29:02 05:34:24 59° 62° (ENE) 05:39:44 145.827
RS-15 23 May 05:38:07 05:47:07 23° 326° (NW) 05:56:15 29.354- 29.394
KKS-1 23 May 05:38:30 05:41:57 22° 264° (W) 05:45:26 437.445
O/OREOS (USA 219) 23 May 05:56:19 05:59:01 15° 300° (WNW) 06:01:43 437.305
XW-2D 23 May 05:59:18 06:01:43 16° 94° (E) 06:04:06 145.860 - 145.880
CUTE-I 23 May 06:05:21 06:09:12 20° 95° (E) 06:13:01 437.470
XW-2B 23 May 06:06:47 06:09:35 19° 95° (E) 06:12:22 145.730 - 145.750
STRAND 1 23 May 06:16:23 06:19:22 16° 65° (ENE) 06:22:22 437.568
XW-2C 23 May 06:19:45 06:23:07 29° 97° (E) 06:26:28 145.795 - 145.815
STARS 23 May 06:21:11 06:24:07 18° 265° (W) 06:27:03 437.465
XW-2F 23 May 06:21:47 06:25:10 29° 97° (E) 06:28:30 145.980 - 146.000
BEESAT 2 23 May 06:24:27 06:28:05 37° 113° (ESE) 06:31:48 435.950
ISS 23 May 06:24:56 06:26:41 14° 233° (SW) 06:28:25 437.550
JUGNU 23 May 06:31:40 06:36:06 21° 180° (S) 06:40:32 437.505
NUDT-PHONESAT 23 May 06:33:04 06:36:29 32° 98° (E) 06:39:53 437.300
KAITUO 1B 23 May 06:35:59 06:39:31 36° 98° (E) 06:43:00 145.475/437.950
AO-85 23 May 06:43:29 06:45:33 13° 309° (NW) 06:47:34 145.980
DOVE 4 23 May 06:46:07 06:50:14 64° 283° (WNW) 06:54:26 437.250
LilacSat-2 23 May 06:52:57 06:56:51 90° 284° (WNW) 07:00:43 437.200
BEESAT 3 23 May 06:53:54 06:57:21 29° 304° (NW) 07:00:52 437.485
SRMSAT 23 May 07:04:40 07:08:04 16° 168° (SSE) 07:11:27 437.500
CUTE 1.7 + AOD 2 23 May 07:06:21 07:08:24 13° 93° (E) 07:10:26 437.475
HO-68 23 May 07:09:25 07:15:01 24° 95° (E) 07:20:34 435.675
PCSat 23 May 07:14:20 07:17:13 15° 256° (WSW) 07:20:04 145.827
XW-2D 23 May 07:32:37 07:35:52 26° 288° (WNW) 07:39:07 145.860 - 145.880
XW-2B 23 May 07:40:38 07:43:39 22° 289° (WNW) 07:46:40 145.730 - 145.750
CUTE-I 23 May 07:44:21 07:49:19 42° 289° (WNW) 07:54:19 437.470
STRAND 1 23 May 07:53:09 07:58:04 51° 260° (W) 08:03:02 437.568
XW-2C 23 May 07:54:45 07:57:01 15° 291° (WNW) 07:59:17 145.795 - 145.815
XW-2F 23 May 07:56:47 07:59:00 15° 291° (WNW) 08:01:13 145.980 - 146.000
SO-50 23 May 07:57:44 08:01:42 29° 55° (NE) 08:05:39 436.795
SEEDS 23 May 08:01:29 08:05:27 39° 98° (E) 08:09:21 437.485
RS-15 23 May 08:02:53 08:06:51 12° 3° (N) 08:10:48 29.354- 29.394
BEESAT 2 23 May 08:03:32 08:05:59 16° 309° (NW) 08:08:27 435.950
XW-2A 23 May 08:04:07 08:07:33 66° 101° (E) 08:10:58 145.665 - 145.685
NUDT-PHONESAT 23 May 08:08:15 08:10:03 13° 291° (WNW) 08:11:52 437.300
KAITUO 1B 23 May 08:11:38 08:13:08 12° 292° (WNW) 08:14:37 145.475/437.950
M-CUBED/EXP-1 PRIME 23 May 08:13:30 08:17:57 88° 73° (ENE) 08:22:08 437.505
JUGNU 23 May 08:20:37 08:24:28 18° 190° (S) 08:28:19 437.505
AO-73 23 May 08:31:40 08:34:56 19° 95° (E) 08:38:12 145.935
CUBEBUG 2 23 May 08:37:49 08:42:24 82° 103° (ESE) 08:47:05 437.445
CUTE 1.7 + AOD 2 23 May 08:40:23 08:44:22 39° 286° (WNW) 08:48:19 437.475
ZACube-1 23 May 08:42:43 08:46:42 29° 97° (E) 08:50:40 437.345
SRMSAT 23 May 08:52:12 08:56:34 21° 178° (S) 09:00:55 437.500
HO-68 23 May 08:56:00 09:02:58 54° 290° (WNW) 09:09:53 435.675
UWE-3 23 May 08:56:19 09:00:54 79° 101° (E) 09:05:33 435.000/436.395/437.385
NO-84 23 May 09:06:36 09:10:53 52° 127° (SE) 09:15:04 435.350 FM
TIGRISAT 23 May 09:10:59 09:13:41 17° 68° (ENE) 09:16:24 435.000
AAUSAT CUBESAT 2 23 May 09:12:40 09:16:44 58° 285° (WNW) 09:20:46 437.432
PRISM 23 May 09:21:43 09:25:28 34° 72° (ENE) 09:29:13 437.425
EO-88 23 May 09:33:39 09:34:33 11° 93° (E) 09:35:28 145.990 - 145.960
FO-29 23 May 09:37:03 09:41:53 39° 72° (ENE) 09:46:42 435.910
SO-50 23 May 09:38:24 09:41:59 23° 249° (WSW) 09:45:34 436.795
SEEDS 23 May 09:38:34 09:40:44 14° 292° (WNW) 09:42:53 437.485
UNISAT 6 23 May 09:40:05 09:44:04 40° 73° (ENE) 09:48:05 437.425
Oscar 11 23 May 09:44:50 09:49:11 73° 284° (WNW) 09:53:29 .
DELFI C3 23 May 10:05:55 10:09:43 47° 99° (E) 10:13:29 145.870
AO-73 23 May 10:07:07 10:11:08 32° 288° (WNW) 10:15:11 145.935
RS-15 23 May 10:16:12 10:26:00 27° 39° (NE) 10:35:23 29.354- 29.394
ZACube-1 23 May 10:19:17 10:22:45 22° 290° (WNW) 10:26:14 437.345
SRMSAT 23 May 10:41:05 10:45:05 19° 188° (S) 10:49:05 437.500
NO-84 23 May 10:45:25 10:48:42 20° 322° (NW) 10:51:54 435.350 FM
TIGRISAT 23 May 10:46:17 10:50:04 32° 262° (W) 10:53:56 435.000
EO-79 23 May 10:56:17 10:59:01 17° 69° (ENE) 11:01:45 145.935-145.965
PRISM 23 May 10:58:25 11:00:47 15° 265° (W) 11:03:10 437.425
ESTCUBE 1 23 May 11:03:47 11:05:21 12° 92° (E) 11:06:54 437.505/2401.250
EO-88 23 May 11:04:57 11:08:20 35° 286° (WNW) 11:11:41 145.990 - 145.960
AIST 2D 23 May 11:06:56 11:10:16 44° 75° (ENE) 11:13:39 435.315
UNISAT 6 23 May 11:19:00 11:20:56 13° 267° (W) 11:22:52 437.425
YUBILEINY 23 May 11:19:01 11:24:09 16° 67° (ENE) 11:29:14 435.215
FO-29 23 May 11:23:38 11:27:09 18° 265° (W) 11:30:38 435.910
NANOSAT C BR1 23 May 11:42:24 11:46:29 57° 75° (ENE) 11:50:35 145.865
POLYITAN 1 23 May 11:43:20 11:47:27 66° 76° (ENE) 11:51:37 437.675
QB50P2 23 May 11:51:43 11:55:54 87° 252° (WSW) 12:00:07 145.880/145.840
DUCHIFAT 1 23 May 11:55:06 11:59:14 74° 76° (ENE) 12:03:23 145.980
LO-87 23 May 12:00:12 12:03:42 60° 283° (WNW) 12:07:12 145.935 - 145.965
VELOX 1 23 May 12:14:25 12:17:25 18° 95° (E) 12:20:25 145.980
RS-15 23 May 12:28:06 12:40:18 89° 62° (ENE) 12:51:48 29.354- 29.394
BUGSAT 1 23 May 12:28:24 12:32:16 49° 74° (ENE) 12:36:08 437.445
EO-79 23 May 12:30:48 12:34:30 30° 262° (W) 12:38:13 145.935-145.965
Gurwin Techsat 1B 23 May 12:31:00 12:32:53 12° 63° (ENE) 12:34:45 435.225
SRMSAT 23 May 12:32:32 12:33:32 10° 197° (SSW) 12:34:32 437.500
SPROUT 23 May 12:35:40 12:39:32 33° 98° (E) 12:43:23 437.525
ESTCUBE 1 23 May 12:38:01 12:42:23 50° 286° (WNW) 12:46:43 437.505/2401.250
DX 1 23 May 13:01:39 13:04:55 21° 96° (E) 13:08:10 434.975-435.025
UKube-1 23 May 13:02:25 13:04:35 14° 94° (E) 13:06:45 .
YUBILEINY 23 May 13:13:06 13:21:58 86° 266° (W) 13:30:49 435.215
Oscar 19 23 May 13:18:37 13:23:44 64° 74° (ENE) 13:28:53 437.125/150
AO-85 23 May 13:36:42 13:38:48 14° 51° (NE) 13:40:56 145.980
50 SAT 23 May 13:40:49 13:44:10 62° 284° (WNW) 13:47:30 437.505
VELOX 1 23 May 13:50:01 13:53:52 31° 289° (WNW) 13:57:44 145.980
Gurwin Techsat 1B 23 May 14:06:51 14:12:08 74° 258° (WSW) 14:17:27 435.225
SPROUT 23 May 14:12:24 14:15:08 17° 291° (WNW) 14:17:52 437.525
ITAMSAT 1 23 May 14:14:41 14:17:48 16° 65° (ENE) 14:20:56 435.822/435.867
AO-7 23 May 14:18:21 14:25:16 31° 61° (ENE) 14:32:13 .
O/OREOS (USA 219) 23 May 14:29:04 14:33:22 42° 67° (ENE) 14:37:38 437.305
UKube-1 23 May 14:36:43 14:40:43 39° 287° (WNW) 14:44:43 .
DX 1 23 May 14:37:24 14:41:01 27° 290° (WNW) 14:44:38 434.975-435.025
RS-15 23 May 14:43:37 14:50:57 19° 261° (W) 14:58:08 29.354- 29.394
Oscar 19 23 May 15:01:27 15:03:24 12° 268° (W) 15:05:20 437.125/150
YUBILEINY 23 May 15:13:42 15:17:22 13° 282° (WNW) 15:21:02 435.215
BEESAT 3 23 May 15:13:49 15:17:38 40° 58° (ENE) 15:21:22 437.485
AO-85 23 May 15:15:23 15:19:21 48° 245° (WSW) 15:23:34 145.980
ITUPSAT 1 23 May 15:25:02 15:29:40 46° 100° (E) 15:34:16 437.325
ITAMSAT 1 23 May 15:51:49 15:56:48 51° 259° (W) 16:01:50 435.822/435.867
BEESAT 23 May 16:00:53 16:05:39 69° 285° (WNW) 16:10:24 436.000
AO-7 23 May 16:09:36 16:17:35 53° 257° (WSW) 16:25:39 .
O/OREOS (USA 219) 23 May 16:10:09 16:12:19 13° 261° (W) 16:14:29 437.305
MOZHAYETS 4 23 May 16:13:54 16:18:34 89° 274° (W) 16:23:12
BEESAT 2 23 May 16:22:55 16:26:58 89° 250° (WSW) 16:30:59 435.950
CUBESAT XI-V 23 May 16:50:51 16:55:09 36° 98° (E) 16:59:23 437.345
BEESAT 3 23 May 16:53:03 16:54:47 12° 252° (WSW) 16:56:29 437.485
ITUPSAT 1 23 May 17:04:13 17:07:03 16° 294° (WNW) 17:09:54 437.325
NO-84 23 May 17:22:09 17:25:35 48° 45° (NE) 17:28:41 435.350 FM
CUTE-I 23 May 17:23:23 17:27:26 23° 68° (ENE) 17:31:30 437.470
LilacSat-2 23 May 17:31:14 17:34:18 23° 72° (ENE) 17:37:24 437.200
KKS-1 23 May 17:32:04 17:36:31 88° 277° (W) 17:40:57 437.445
HO-68 23 May 17:37:34 17:39:55 12° 56° (NE) 17:42:17 435.675
DOVE 4 23 May 17:46:53 17:51:42 77° 77° (ENE) 17:56:13 437.250
XW-2D 23 May 18:08:55 18:12:41 76° 78° (ENE) 18:16:30 145.860 - 145.880
STARS 23 May 18:12:38 18:17:00 73° 284° (WNW) 18:21:22 437.465
XW-2B 23 May 18:16:45 18:20:32 87° 258° (WSW) 18:24:22 145.730 - 145.750
PCSat 23 May 18:26:36 18:28:57 13° 103° (ESE) 18:31:19 145.827
CUBESAT XI-V 23 May 18:29:04 18:32:11 18° 292° (WNW) 18:35:18 437.345
XW-2C 23 May 18:30:20 18:34:01 54° 260° (W) 18:37:47 145.795 - 145.815
XW-2F 23 May 18:31:56 18:35:37 54° 261° (W) 18:39:21 145.980 - 146.000
XW-2A 23 May 18:33:50 18:34:45 11° 69° (ENE) 18:35:40 145.665 - 145.685
NUDT-PHONESAT 23 May 18:41:33 18:45:07 49° 260° (W) 18:48:45 437.300
KAITUO 1B 23 May 18:45:23 18:48:57 43° 261° (W) 18:52:34 145.475/437.950
SEEDS 23 May 18:50:02 18:52:46 17° 69° (ENE) 18:55:30 437.485
CUTE-I 23 May 19:02:19 19:07:12 37° 261° (W) 19:12:06 437.470
LilacSat-2 23 May 19:05:52 19:08:30 18° 265° (W) 19:11:09 437.200
HO-68 23 May 19:19:18 19:26:26 76° 73° (ENE) 19:33:38 435.675
CUTE 1.7 + AOD 2 23 May 19:28:10 19:32:26 82° 78° (ENE) 19:36:44 437.475
CUBEBUG 2 23 May 19:32:15 19:36:03 37° 73° (ENE) 19:39:55 437.445
ZACube-1 23 May 19:36:20 19:38:17 13° 67° (ENE) 19:40:14 437.345
UWE-3 23 May 19:49:36 19:53:22 35° 73° (ENE) 19:57:11 435.000/436.395/437.385
Tancredo 1 23 May 19:50:00 19:51:38 14° 127° (SE) 19:53:17 437.200
AAUSAT CUBESAT 2 23 May 19:58:13 20:02:15 50° 75° (ENE) 20:06:19 437.432
XW-2A 23 May 20:04:15 20:07:10 28° 262° (W) 20:10:07 145.665 - 145.685
PCSat 23 May 20:06:20 20:11:42 66° 297° (WNW) 20:17:07 145.827
STRAND 1 23 May 20:07:24 20:12:34 76° 103° (ESE) 20:17:42 437.568
SEEDS 23 May 20:24:21 20:28:09 32° 263° (W) 20:31:59 437.485
Oscar 11 23 May 20:35:14 20:39:24 49° 75° (ENE) 20:43:36 .
DELFI C3 23 May 20:48:21 20:50:51 16° 69° (ENE) 20:53:20 145.870
AO-73 23 May 20:57:55 21:02:02 67° 259° (W) 21:06:16 145.935
ZACube-1 23 May 21:10:12 21:14:07 41° 262° (W) 21:18:09 437.345
HO-68 23 May 21:10:41 21:14:42 16° 267° (W) 21:18:46 435.675
CUBEBUG 2 23 May 21:10:55 21:12:49 13° 267° (W) 21:14:44 437.445
